SHIJIAN-25 (SJ-25)

Last updated on Thu Oct 30 2025 00:02:52 GMT+0000 (Coordinated Universal Time)

1 62485U 25002A 25302.74202956 -.00000333 00000+0 00000+0 0 9999 2 62485 4.5945 62.5756 0055867 167.9148 203.4025 1.00273960 3054
UTC large
Height (km)
Speed (km/s)
/
Latitude / Longitude
Inclination (degrees)
Orbital Period (minutes)
Azimuth
Elevation
Range (km)
Doppler Factor

Next 0 passes for location: London (51.5072 / 0.1276)

Sorry there are no passes over London.